SB KEPS @ AMSAT $ORB26130.1 2Line Orbital Elements 26130.AMSAT QST de W1STR AMSAT Orbital Elements for Amateur Satellites in TLE Format From Orbital Analysis Office New England Sci-Tech STEM Education Center Natick MA May 10, 2026 To all radio amateurs These element sets describe the orbits of various satellites in use by the amateur radio community. For details see: www.amsat.org/keplerian-elements-formats/ A daily update of element sets is available at: www.amsat.org/tle/daily-bulletin.txt or without bulletin text: www.amsat.org/tle/dailytle.txt AO-07 1 07530U 74089B 26129.99850271 -.00000039 00000-0 48947-4 0 9993 2 07530 101.9919 142.8449 0012110 202.3330 213.9803 12.53697418355732 UO-11 1 14781U 84021B 26130.16295719 .00000805 00000-0 87698-4 0 9993 2 14781 97.8035 96.1717 0006497 319.7012 40.3723 14.90692785251463 AO-27 1 22825U 93061C 26130.17089678 .00000057 00000-0 38865-4 0 9992 2 22825 98.6892 197.5946 0007898 204.6990 155.3815 14.30931739701563 FO-29 1 24278U 96046B 26130.15998942 -.00000047 00000-0 -11309-4 0 9998 2 24278 98.5282 344.2324 0349589 194.9628 164.0957 13.53272304468020 GO-32 1 25397U 98043D 26129.92233931 .00000045 00000-0 39510-4 0 9993 2 25397 99.0062 121.7181 0001169 19.1102 341.0120 14.24420793445882 ISS 1 25544U 98067A 26130.19913920 .00006212 00000-0 12008-3 0 9991 2 25544 51.6310 128.1454 0007453 42.8467 317.3101 15.49169801565863 NO-44 1 26931U 01043C 26130.02352645 .00000080 00000-0 60854-4 0 9993 2 26931 67.0516 342.9811 0006316 263.7142 96.3240 14.31941092284986 SO-50 1 27607U 02058C 26129.71773912 .00000829 00000-0 11538-3 0 9994 2 27607 64.5524 247.9994 0075627 269.4960 89.7480 14.82964947258754 CO-55 1 27844U 03031E 26130.03268044 .00000217 00000-0 11273-3 0 9998 2 27844 98.6748 139.0706 0008430 300.2447 59.7897 14.24311737186249 RS-22 1 27939U 03042A 26130.19462267 .00000441 00000-0 76233-4 0 9992 2 27939 98.3475 313.4823 0012045 34.7219 88.8928 14.73399413209952 CO-65 1 32785U 08021C 26130.19296007 .00002989 00000-0 19263-3 0 9994 2 32785 97.8264 110.8381 0009893 147.9640 212.2192 15.09091555979469 CO-66 1 32791U 08021J 26129.92693767 .00012761 00000-0 42249-3 0 9993 2 32791 97.7531 126.0413 0005093 90.4223 269.7600 15.31449664981438 RS-30 1 32953U 08025A 26130.19329338 .00000045 00000-0 25285-3 0 9991 2 32953 82.5069 19.0733 0020406 36.2675 323.9784 12.43178129814971 SRMSAT 1 37841U 11058D 26130.13707877 .00000378 00000-0 61187-4 0 9995 2 37841 19.9728 289.7829 0011732 145.0783 9.8319 14.11567216752433 ZACUBE-1 1 39417U 13066B 26129.87672516 .00003496 00000-0 27449-3 0 9993 2 39417 97.8123 92.0065 0042321 22.1026 338.2010 15.00890447674982 Delfi-N3xt 1 39428U 13066N 26130.02367793 .00005073 00000-0 44859-3 0 9999 2 39428 97.8337 50.3819 0074500 335.0919 24.6712 14.94646486668922 GOMX-1 1 39430U 13066Q 26130.18731876 .00001275 00000-0 19821-3 0 9997 2 39430 97.6511 333.0455 0128242 198.9548 160.6863 14.69310375664337 LO-74 1 39440U 13066AA 26130.07782065 .00002746 00000-0 25808-3 0 9998 2 39440 97.8887 78.9107 0058696 152.1960 208.2418 14.93479876671309 AO-73 1 39444U 13066AE 26130.19895892 .00005928 00000-0 37381-3 0 9992 2 39444 97.8258 100.8719 0035752 335.8081 24.1466 15.08992876673937 DTUSAT-2 1 40030U 14033W 26129.92382932 .00005465 00000-0 30051-3 0 9998 2 40030 98.0873 125.2396 0008203 19.1909 340.9629 15.14518548646892 LILACSAT-2 1 40908U 15049K 26130.20191590 .00012445 00000-0 22197-3 0 9999 2 40908 97.4703 165.6283 0007901 46.0227 314.1675 15.50194321589866 Horyu-4 1 41340U 16012D 26129.76747987 .00129383 00000-0 74260-3 0 9995 2 41340 30.9893 356.5603 0005847 357.1247 2.9376 15.77249913564715 Lapan A3 1 41603U 16040E 26130.20109804 .00002723 00000-0 88008-4 0 9993 2 41603 97.1492 127.6042 0011446 143.5221 216.6803 15.32865363548997 CAS-2T 1 41847U 16066G 26130.21440780 .00000536 00000-0 85422-4 0 9990 2 41847 98.3825 206.3801 0340981 244.6971 111.8537 14.44587690499319 TechnoSat 1 42829U 17042E 26130.01484326 .00001554 00000-0 11422-3 0 9997 2 42829 97.4242 289.1425 0016703 220.2809 139.7181 15.04721464480967 AO-91 1 43017U 17073E 26130.16410510 .00006061 00000-0 26707-3 0 9991 2 43017 97.4765 358.1701 0154203 99.7936 262.0745 15.12020413459641 S-Net D 1 43186U 18014G 26130.19109546 .00002932 00000-0 15467-3 0 9995 2 43186 97.5388 35.2243 0009378 140.4551 219.7368 15.16313111453001 S-Net B 1 43187U 18014H 26130.20180823 .00003259 00000-0 17164-3 0 9994 2 43187 97.5392 35.2205 0010079 137.0842 223.1179 15.16283521453000 S-Net A 1 43188U 18014J 26130.19016179 .00002925 00000-0 15424-3 0 9991 2 43188 97.5403 35.4105 0009979 137.5639 222.6367 15.16320005453003 S-Net C 1 43189U 18014K 26130.20547841 .00003378 00000-0 17776-3 0 9994 2 43189 97.5422 35.4946 0011474 132.1391 228.0818 15.16274608451553 Ten-Koh 1 43677U 18084G 26130.10557802 .00000918 00000-0 73608-4 0 9994 2 43677 98.0775 320.8707 0007886 241.7496 118.2933 15.02772006410444 PO-101 1 43678U 18084H 26130.15535852 .00002081 00000-0 17126-3 0 9996 2 43678 98.1096 324.7357 0012177 302.5968 57.4078 15.00262815410517 QO-100 1 43700U 18090A 26130.11747649 .00000153 00000-0 00000+0 0 9991 2 43700 0.0032 295.8777 0001635 145.9402 214.2226 1.00273312 27294 MinXSS-2 1 43758U 18099A 26130.15218806 .00023827 00000-0 51548-3 0 9995 2 43758 97.4546 205.3979 0007776 53.6107 306.5858 15.44445659408259 AO-95 1 43770U 18099N 26130.11763779 .00008145 00000-0 32020-3 0 9999 2 43770 97.4407 190.5249 0010379 119.7667 240.4605 15.25883827407417 SNUSat 2 1 43782U 18099AA 26130.12355365 .00005452 00000-0 24673-3 0 9994 2 43782 97.4090 184.1042 0011870 74.0741 286.1801 15.21251769407247 SnugLite 1 43784U 18099AC 26130.12954091 .00007736 00000-0 30044-3 0 9993 2 43784 97.3899 184.8037 0004317 79.0263 281.1461 15.26345974407512 ITASat 1 1 43786U 18099AE 26130.07255874 .00004731 00000-0 23162-3 0 9997 2 43786 97.4060 182.3537 0014265 122.8131 237.4480 15.18562353407122 EAGLET 1 1 43790U 18099AJ 26130.08538370 .00003291 00000-0 19162-3 0 9993 2 43790 97.4259 180.7658 0012758 115.1356 245.1200 15.12645067406574 ESEO 1 43792U 18099AL 26130.06256670 .00001659 00000-0 12368-3 0 9990 2 43792 97.3995 169.0799 0013313 102.7083 257.5632 15.04123055406075 JO-97 1 43803U 18099AX 26130.17182406 .00010251 00000-0 32938-3 0 9993 2 43803 97.4151 192.9067 0006635 59.0455 301.1438 15.32450269407805 Suomi 100 1 43804U 18099AY 26130.15694640 .00007802 00000-0 29184-3 0 9997 2 43804 97.4212 190.7133 0011211 61.7963 298.4407 15.27541807407610 ISAT 1 43879U 18111D 26130.04355624 .00057081 00000-0 72381-3 0 9999 2 43879 97.5898 62.5293 0008473 89.1471 271.0755 15.59236282405210 UWE-4 1 43880U 18111E 26129.74016561 .00022244 00000-0 49161-3 0 9993 2 43880 97.5852 56.4350 0010718 101.4285 258.8167 15.43800580404843 Sparrow 1 43881U 18111F 26129.80795176 .00075846 00000-0 75792-3 0 9992 2 43881 97.6122 67.3159 0007576 112.9726 247.2333 15.65334822405357 Prox-1 1 44339U 19036A 26130.02185602 .00009398 00000-0 92867-3 0 9992 2 44339 23.9966 9.0009 0006419 311.6555 48.3394 14.89716202367775 Taurus 1 1 44530U 19059C 26130.17354650 .00002965 00000-0 48436-3 0 9993 2 44530 98.6392 292.6628 0009512 75.8295 284.3966 14.71682368353053 TO-108 1 44881U 19093C 26130.14683538 .00000496 00000-0 62171-4 0 9997 2 44881 97.7532 203.3052 0012804 206.9234 153.1319 14.86455289345766 RS-44 1 44909U 19096E 26130.16530225 .00000008 00000-0 -90678-5 0 9991 2 44909 82.5245 4.9742 0216574 233.1345 124.9729 12.79748128297489 SALSAT 1 46495U 20068K 26129.93875273 .00005920 00000-0 21129-3 0 9992 2 46495 97.8863 130.6938 0011619 79.8924 280.3625 15.29235376309515 CSS (TIANHE-1) 1 48274U 21035A 26130.21766427 .00017476 00000-0 19700-3 0 9998 2 48274 41.4668 192.9669 0004309 281.6138 78.4218 15.62110733287234 CUTE 1 49263U 21088D 26130.18016321 .00127529 00000-0 75169-3 0 9994 2 49263 97.4188 226.2810 0001171 285.9585 74.1553 15.77814724256538 TeikyoSat 4 1 49396U 21102B 26130.06912007 .00001131 00000-0 74495-4 0 9993 2 49396 97.3701 161.0327 0013624 67.8898 292.3777 15.09371025246970 Z-Sat 1 49399U 21102E 26130.16594361 .00004020 00000-0 20037-3 0 9998 2 49399 97.3359 166.6449 0017320 25.7571 334.4522 15.17978203247670 KOSEN 1 1 49402U 21102H 26130.12304992 .00005398 00000-0 21030-3 0 9991 2 49402 97.3221 173.0291 0013125 349.7556 10.3413 15.26312111248211 HO-113 1 50466U 21131B 26130.22063090 .00000319 00000-0 11235-3 0 9991 2 50466 98.4952 222.8198 0003674 195.4538 164.6539 14.41320621229648 SNUGLITE 2 1 52899U 22065F 26129.96995913 .00000700 00000-0 14194-3 0 9998 2 52899 98.2151 274.8810 0008414 137.4500 222.7356 14.64274867205405 UmKA 1 (RS40S) 1 57172U 23091G 26130.18943802 .00003884 00000-0 18131-3 0 9994 2 57172 97.5074 189.0407 0011374 248.8008 111.2012 15.20382770158233 CubeBel-2 (EU11S) 1 57175U 23091K 26130.15245124 .00007744 00000-0 28366-3 0 9996 2 57175 97.5071 193.0533 0008738 243.6678 116.3664 15.28268989158494 RS-38S 1 57189U 23091Z 26130.15185618 .00011473 00000-0 34184-3 0 9991 2 57189 97.5106 198.9092 0007398 194.5875 165.5155 15.34824046158856 SONATE-2 1 59112U 24043Q 26129.96926926 .00025948 00000-0 37322-3 0 9998 2 59112 97.5496 278.1176 0006084 344.0398 16.0664 15.56035966121947 GRBBeta 1 60237U 24128C 26129.98778743 .00002637 00000-0 18909-3 0 9996 2 60237 61.9911 350.2568 0045645 126.7287 233.8011 15.06325443100511 Curium One 1 60242U 24128H 26130.14863091 .00005841 00000-0 34405-3 0 9992 2 60242 61.9800 340.4367 0045330 123.0174 237.5289 15.11898998100703 ROBUSTA-3A 1 60243U 24128J 26130.15869678 .00005381 00000-0 32497-3 0 9999 2 60243 61.9877 342.6644 0046442 120.5090 240.0602 15.11079542100674 CatSat 1 60246U 24125J 26130.14343176 .00035928 00000-0 53683-3 0 9998 2 60246 97.2133 342.2676 0021718 325.1923 34.7909 15.54668011101471 HYPERVIEW-1G (RS66S) 1 61772U 24199AP 26130.16777632 .00064175 00000-0 58728-3 0 9995 2 61772 97.2950 8.2189 0007894 70.8573 289.3542 15.67572044128705 AO-123 1 61781U 24199AY 26130.16926082 .00005117 00000-0 15194-3 0 9991 2 61781 97.3053 359.1889 0015906 86.4299 273.8764 15.35115580128095 JINJUSat 1B 1 63210U 25052A 26129.95740028 .00010867 00000-0 35053-3 0 9992 2 63210 97.4040 26.6896 0002557 181.0890 179.0347 15.32323888 64241 NUSHSAT 1 1 63211U 25052B 26130.18903719 .00012673 00000-0 38132-3 0 9996 2 63211 97.4018 27.3653 0002293 177.3147 182.8108 15.34506452 64313 TEVEL2-4 1 63213U 25052D 26129.69298768 .00012689 00000-0 39678-3 0 9996 2 63213 97.3941 26.0540 0001174 182.4457 177.6780 15.33281085 64216 TEVEL2-5 1 63214U 25052E 26129.97049089 .00012088 00000-0 37990-3 0 9996 2 63214 97.3940 26.2896 0001210 180.6979 179.4262 15.33133002 64256 TEVEL2-6 1 63215U 25052F 26130.17770307 .00011057 00000-0 34812-3 0 9990 2 63215 97.3942 26.4817 0001286 188.6956 171.4264 15.33099860 64280 TEVEL2-1 1 63217U 25052H 26130.19417095 .00010690 00000-0 34181-3 0 9997 2 63217 97.3913 26.1658 0000754 214.8521 145.2672 15.32612197 64273 TEVEL2-3 1 63218U 25052J 26130.19007638 .00010909 00000-0 34823-3 0 9992 2 63218 97.3917 26.1793 0000727 216.1267 143.9926 15.32659740 64272 TEVEL2-2 1 63219U 25052K 26130.19466090 .00010617 00000-0 33945-3 0 9994 2 63219 97.3917 26.1683 0000751 220.7303 139.3883 15.32618210 64278 TEVEL2-9 1 63237U 25052AD 26130.18978407 .00010041 00000-0 34030-3 0 9990 2 63237 97.3975 25.6178 0004046 279.6718 80.4066 15.30746403 64216 TEVEL2-7 1 63238U 25052AE 26129.70074179 .00010919 00000-0 37295-3 0 9990 2 63238 97.3979 25.0611 0004165 282.2953 77.7822 15.30471471 64130 TEVEL2-8 1 63239U 25052AF 26130.16623949 .00009216 00000-0 31535-3 0 9997 2 63239 97.3981 25.5032 0004109 280.7377 79.3401 15.30461893 64203 HYDRA-W 1 63490U 25052BL 26113.93882235 .05662091 24406-5 29537-2 0 9997 2 63490 97.3690 18.2798 0008685 203.5899 156.4993 16.20186780 62336 HADES-ICM (SO-125) 1 63492U 25052BN 26129.70564069 .00570308 12819-3 18595-2 0 9992 2 63492 97.3748 33.5239 0008182 165.6972 194.4534 15.90607553 64713 SPIRONE 1 66657U 25274H 26130.06494450 .00001371 00000-0 13580-3 0 9996 2 66657 97.7467 59.9075 0013165 136.0113 224.2157 14.93386607 24532 K-HERO 1 66660U 25274L 26129.74538237 .00001690 00000-0 16439-3 0 9995 2 66660 97.7482 59.7255 0014947 141.4971 218.7319 14.93814012 24491 SNUGLITE-III DURI 1 66661U 25274M 26129.80138009 .00001139 00000-0 11232-3 0 9990 2 66661 97.7478 59.7998 0015522 142.5848 217.6456 14.93867835 24509 SilverSat 1 66909U 98067XV 26113.44966717 .07226154 12288-4 11979-2 0 9998 2 66909 51.6027 190.0749 0007952 333.4666 26.5949 16.32457272 22308 SAKHACUBE-CHOLBON 1 67290U 25313AU 26130.15656236 .00007155 00000-0 29617-3 0 9990 2 67290 97.3934 205.6860 0010818 126.4657 233.7579 15.24187138 20184 RS95S (QMR-KWT-2) 1 67291U 25313AV 26130.17574600 .00008197 00000-0 32794-3 0 9994 2 67291 97.3935 205.8106 0010552 126.0223 234.1995 15.25289242 20199 Ten-Koh2 1 68261U 25241B 26129.44879678 .00004961 00000-0 21942-3 0 9991 2 68261 51.6522 143.9368 0006141 22.4215 337.7031 15.23397211 9005 JACK-002 1 68417U 26067B 26129.82573747 .00005198 00000-0 25222-3 0 9999 2 68417 97.4541 88.9121 0003899 72.4772 287.6888 15.18915386 6128 DISCO 2 1 68431U 26067R 26130.16700529 .00005307 00000-0 26039-3 0 9993 2 68431 97.4579 89.2414 0004154 110.3837 249.7843 15.18518405 6179 HADES-SA (SpinnyONE) 1 68446U 26067AG 26130.13042418 .00011213 00000-0 55730-3 0 9995 2 68446 97.4386 89.0424 0006542 185.7196 174.3964 15.17798373 6155 PARUS-6U1 1 68456U 26067AS 26130.13615197 .00003705 00000-0 19018-3 0 9992 2 68456 97.4529 89.1041 0005513 176.0933 184.0345 15.17119682 6162 SAL-E 1 68458U 26067AU 26130.13567990 .00004775 00000-0 24343-3 0 9996 2 68458 97.4454 89.0672 0005437 185.0114 175.1066 15.17218445 6164 FSI-SAT 2 1 68792U 26088A 26129.96503778 .00003806 00000-0 26116-3 0 9997 2 68792 97.5021 280.2043 0013608 235.0619 124.9331 15.06517954 2537 OrigamiSat 2 1 68795U 26088D 26130.14767738 .00002543 00000-0 16904-3 0 9991 2 68795 97.5033 280.4228 0015190 205.5639 154.4839 15.07983799 2561 ARICA 2 1 68796U 26088E 26130.14647402 .00003209 00000-0 21149-3 0 9994 2 68796 97.5020 280.4196 0015232 203.7027 156.3501 15.08108360 2561 WASEDA-SAT-ZERO-II 1 68797U 26088F 26130.14585090 .00004380 00000-0 28654-3 0 9998 2 68797 97.5019 280.4202 0015203 203.4547 156.5990 15.08193791 2566 MANGARO-II-Piscus 1 68798U 26088G 26129.87670242 .00002806 00000-0 18335-3 0 9997 2 68798 97.5027 280.1685 0018516 208.4048 151.6173 15.08493028 2520 IO-86 1 40931U 25360.30710720 .00000000 00000-0 12800-3 0 00 2 40931 6.0006 332.5373 0012733 338.8432 8.1437 14.79075515 01 LILIUM-4 1 71922C 26067AC 26089.50133053 -.00014632 00000+0 -74472-3 0 04 2 71922 97.4497 49.1617 0004341 5.9603 355.7042 15.16896692 16 /EX